| time (UTC) | temp F | wind direction | speed MPH | gust MPH | rain 1hr in | rain 24hr in | rain mn in | humidity % | barometer mb |
| 20260507090405 | 62 | 119 | 0.0 | 12.0 | 0.00 | 0.00 | 0.00 | 73 | 1011.4 |
| 20260507085405 | 62 | 105 | 2.0 | 10.0 | 0.00 | 0.00 | 0.00 | 75 | 1011.5 |
| 20260507084404 | 61 | 128 | 1.0 | 8.0 | 0.00 | 0.00 | 0.00 | 76 | 1011.5 |
| 20260507083905 | 61 | 157 | 1.0 | 8.0 | 0.00 | 0.00 | 0.00 | 78 | 1011.5 |
| 20260507082905 | 60 | 152 | 3.0 | 10.0 | 0.00 | 0.00 | 0.00 | 79 | 1011.6 |
| 20260507082405 | 60 | 142 | 2.0 | 12.0 | 0.00 | 0.00 | 0.00 | 80 | 1011.5 |
| 20260507081905 | 60 | 162 | 1.0 | 12.0 | 0.00 | 0.00 | 0.00 | 80 | 1011.6 |
| 20260507081405 | 60 | 110 | 1.0 | 12.0 | 0.00 | 0.00 | 0.00 | 81 | 1011.5 |
| 20260507080905 | 59 | 120 | 2.0 | 8.0 | 0.00 | 0.00 | 0.00 | 82 | 1011.5 |
| 20260507080405 | 59 | 70 | 2.0 | 12.0 | 0.00 | 0.00 | 0.00 | 82 | 1011.4 |
| 20260507075905 | 59 | 133 | 1.0 | 8.0 | 0.00 | 0.00 | 0.00 | 82 | 1011.4 |
| 20260507075404 | 59 | 146 | 1.0 | 8.0 | 0.00 | 0.00 | 0.00 | 83 | 1011.3 |
| 20260507074905 | 58 | 84 | 1.0 | 9.0 | 0.00 | 0.00 | 0.00 | 84 | 1011.3 |
| 20260507074405 | 58 | 130 | 5.0 | 9.0 | 0.00 | 0.00 | 0.00 | 84 | 1011.2 |
| 20260507072905 | 58 | 44 | 1.0 | 9.0 | 0.00 | 0.00 | 0.00 | 85 | 1011.1 |
| 20260507072405 | 58 | 82 | 1.0 | 8.0 | 0.00 | 0.00 | 0.00 | 86 | 1011.0 |
| 20260507071905 | 57 | 158 | 1.0 | 8.0 | 0.00 | 0.00 | 0.00 | 86 | 1010.9 |
| 20260507071405 | 57 | 151 | 3.0 | 8.0 | 0.00 | 0.00 | 0.00 | 87 | 1010.8 |
| 20260507070905 | 57 | 128 | 3.0 | 8.0 | 0.00 | 0.00 | 0.00 | 88 | 1010.8 |
| 20260507070404 | 56 | 125 | 1.0 | 3.0 | 0.00 | 0.00 | 0.00 | 88 | 1010.8 |
| 20260507065905 | 56 | 125 | 0.0 | 0.0 | 0.00 | 0.00 | 0.00 | 89 | 1010.9 |
| 20260507064905 | 55 | 127 | 1.0 | 8.0 | 0.00 | 0.00 | 0.00 | 90 | 1010.8 |
| 20260507063904 | 55 | 161 | 0.0 | 1.0 | 0.00 | 0.00 | 0.00 | 91 | 1010.7 |
| 20260507063405 | 54 | 161 | 0.0 | 0.0 | 0.00 | 0.00 | 0.00 | 91 | 1010.7 |
| 20260507061905 | 54 | 111 | 0.0 | 0.0 | 0.00 | 0.00 | 0.00 | 91 | 1010.5 |
| 20260507061405 | 54 | 111 | 0.0 | 2.0 | 0.00 | 0.00 | 0.00 | 92 | 1010.4 |
| 20260507060905 | 54 | 111 | 0.0 | 0.0 | 0.00 | 0.00 | 0.00 | 92 | 1010.4 |
| 20260507060405 | 53 | 111 | 0.0 | 0.0 | 0.00 | 0.00 | 0.00 | 92 | 1010.3 |
| 20260507055905 | 53 | 111 | 0.0 | 6.0 | 0.00 | 0.00 | 0.00 | 91 | 1010.3 |
| 20260507054905 | 53 | 106 | 0.0 | 0.0 | 0.00 | 0.00 | 0.00 | 91 | 1010.2 |
| 20260507053905 | 53 | 106 | 0.0 | 0.0 | 0.00 | 0.00 | 0.00 | 91 | 1010.3 |
| 20260507052905 | 53 | 83 | 1.0 | 6.0 | 0.00 | 0.00 | 0.00 | 91 | 1010.3 |
| 20260507052407 | 53 | 77 | 1.0 | 6.0 | 0.00 | 0.00 | 0.00 | 91 | 1010.3 |
| 20260507051905 | 53 | 59 | 1.0 | 6.0 | 0.00 | 0.00 | 0.00 | 91 | 1010.2 |
| 20260507051405 | 53 | 82 | 2.0 | 8.0 | 0.00 | 0.00 | 0.00 | 91 | 1010.4 |
| 20260507050905 | 53 | 29 | 0.0 | 8.0 | 0.00 | 0.00 | 0.00 | 91 | 1010.4 |
| 20260507050405 | 53 | 75 | 2.0 | 7.0 | 0.00 | 0.00 | 0.00 | 91 | 1010.4 |
| 20260507045904 | 53 | 32 | 1.0 | 7.0 | 0.00 | 0.00 | 0.00 | 91 | 1010.4 |
| 20260507045404 | 53 | 69 | 3.0 | 8.0 | 0.00 | 0.00 | 0.00 | 91 | 1010.4 |
| 20260507044905 | 53 | 105 | 2.0 | 6.0 | 0.00 | 0.00 | 0.00 | 91 | 1010.5 |
| 20260507044405 | 53 | 54 | 2.0 | 6.0 | 0.00 | 0.00 | 0.00 | 91 | 1010.5 |
| 20260507043405 | 53 | 125 | 4.0 | 9.0 | 0.00 | 0.00 | 0.00 | 91 | 1010.4 |
| 20260507042904 | 53 | 96 | 2.0 | 9.0 | 0.00 | 0.00 | 0.00 | 91 | 1010.6 |
| 20260507042405 | 53 | 64 | 2.0 | 10.0 | 0.00 | 0.00 | 0.00 | 91 | 1010.5 |
| 20260507041905 | 53 | 110 | 2.0 | 6.0 | 0.00 | 0.00 | 0.00 | 91 | 1010.5 |
| 20260507041405 | 53 | 76 | 0.0 | 2.0 | 0.00 | 0.00 | 0.00 | 90 | 1010.6 |
| 20260507040905 | 53 | 99 | 2.0 | 7.0 | 0.00 | 0.00 | 0.00 | 90 | 1010.7 |
| 20260507040404 | 53 | 263 | 0.0 | 6.0 | 0.00 | 0.00 | 0.00 | 90 | 1010.7 |
| 20260507035905 | 53 | 96 | 1.0 | 6.0 | 0.00 | 0.00 | 0.00 | 90 | 1010.7 |
| 20260507035404 | 53 | 101 | 1.0 | 6.0 | 0.00 | 0.00 | 0.00 | 90 | 1010.8 |
| 20260507034405 | 54 | 18 | 0.0 | 6.0 | 0.00 | 0.00 | 0.00 | 90 | 1010.8 |
| 20260507033905 | 53 | 70 | 2.0 | 5.0 | 0.00 | 0.00 | 0.00 | 90 | 1010.9 |
| 20260507033404 | 54 | 49 | 1.0 | 5.0 | 0.00 | 0.00 | 0.00 | 89 | 1010.8 |
| 20260507032405 | 54 | 46 | 2.0 | 8.0 | 0.00 | 0.00 | 0.00 | 89 | 1010.9 |
| 20260507031905 | 54 | 34 | 1.0 | 9.0 | 0.00 | 0.00 | 0.00 | 89 | 1010.8 |
| 20260507031405 | 54 | 77 | 2.0 | 7.0 | 0.00 | 0.00 | 0.00 | 89 | 1010.8 |
| 20260507030905 | 54 | 89 | 2.0 | 7.0 | 0.00 | 0.00 | 0.00 | 89 | 1010.8 |
| 20260507030405 | 54 | 57 | 1.0 | 10.0 | 0.00 | 0.00 | 0.00 | 89 | 1010.9 |
| 20260507025905 | 54 | 122 | 2.0 | 9.0 | 0.00 | 0.00 | 0.00 | 89 | 1011.0 |
| 20260507025405 | 54 | 176 | 3.0 | 12.0 | 0.00 | 0.00 | 0.00 | 89 | 1010.8 |
| 20260507024904 | 54 | 142 | 3.0 | 9.0 | 0.00 | 0.00 | 0.00 | 88 | 1010.9 |
| 20260507024404 | 54 | 173 | 3.0 | 9.0 | 0.00 | 0.00 | 0.00 | 88 | 1010.8 |
| 20260507023904 | 54 | 147 | 3.0 | 10.0 | 0.00 | 0.00 | 0.00 | 88 | 1010.9 |
| 20260507023404 | 54 | 113 | 2.0 | 10.0 | 0.00 | 0.00 | 0.00 | 88 | 1011.0 |
| 20260507022905 | 54 | 173 | 4.0 | 12.0 | 0.00 | 0.00 | 0.00 | 88 | 1011.0 |
| 20260507022404 | 54 | 123 | 3.0 | 12.0 | 0.00 | 0.00 | 0.00 | 88 | 1010.9 |
| 20260507021905 | 54 | 102 | 2.0 | 12.0 | 0.00 | 0.00 | 0.00 | 88 | 1010.9 |
| 20260507020904 | 54 | 100 | 2.0 | 9.0 | 0.00 | 0.00 | 0.00 | 88 | 1010.9 |
| 20260507020405 | 54 | 219 | 1.0 | 7.0 | 0.00 | 0.00 | 0.00 | 87 | 1010.9 |
| 20260507015904 | 54 | 91 | 5.0 | 13.0 | 0.00 | 0.00 | 0.00 | 87 | 1011.1 |
| 20260507015405 | 54 | 147 | 2.0 | 13.0 | 0.00 | 0.00 | 0.00 | 87 | 1011.1 |
| 20260507014904 | 54 | 42 | 3.0 | 9.0 | 0.00 | 0.00 | 0.00 | 87 | 1011.2 |
| 20260507014404 | 54 | 128 | 2.0 | 8.0 | 0.00 | 0.00 | 0.00 | 87 | 1011.2 |
| 20260507013904 | 54 | 77 | 1.0 | 8.0 | 0.00 | 0.00 | 0.00 | 87 | 1011.2 |
| 20260507013405 | 54 | 51 | 1.0 | 8.0 | 0.00 | 0.00 | 0.00 | 87 | 1011.2 |
| 20260507012904 | 54 | 126 | 3.0 | 13.0 | 0.00 | 0.00 | 0.00 | 87 | 1011.2 |
| 20260507012405 | 54 | 107 | 2.0 | 9.0 | 0.00 | 0.00 | 0.00 | 87 | 1011.3 |
| 20260507011905 | 54 | 115 | 2.0 | 9.0 | 0.00 | 0.00 | 0.00 | 87 | 1011.4 |
| 20260507011405 | 54 | 138 | 2.0 | 16.0 | 0.00 | 0.00 | 0.00 | 87 | 1011.5 |
| 20260507010904 | 54 | 129 | 2.0 | 8.0 | 0.00 | 0.00 | 0.00 | 87 | 1011.5 |
| 20260507010404 | 54 | 130 | 1.0 | 5.0 | 0.00 | 0.00 | 0.00 | 87 | 1011.5 |
| 20260507005904 | 54 | 143 | 1.0 | 6.0 | 0.00 | 0.00 | 0.00 | 87 | 1011.6 |
| 20260507005404 | 54 | 137 | 7.0 | 13.0 | 0.00 | 0.00 | 0.00 | 87 | 1011.6 |
| 20260507004905 | 54 | 146 | 4.0 | 10.0 | 0.00 | 0.00 | 0.00 | 86 | 1011.6 |
| 20260507004405 | 54 | 129 | 3.0 | 9.0 | 0.00 | 0.00 | 0.00 | 86 | 1011.7 |
| 20260507003904 | 54 | 136 | 6.0 | 14.0 | 0.00 | 0.00 | 0.00 | 86 | 1011.8 |
| 20260507003405 | 54 | 144 | 5.0 | 14.0 | 0.00 | 0.00 | 0.00 | 86 | 1011.8 |
| 20260507002904 | 54 | 104 | 4.0 | 12.0 | 0.00 | 0.00 | 0.00 | 86 | 1011.7 |
| 20260507002404 | 55 | 139 | 5.0 | 14.0 | 0.00 | 0.00 | 0.00 | 85 | 1011.8 |
| 20260507001904 | 55 | 64 | 1.0 | 14.0 | 0.00 | 0.00 | 0.00 | 85 | 1011.9 |
| 20260507001405 | 55 | 93 | 1.0 | 10.0 | 0.00 | 0.00 | 0.00 | 85 | 1011.9 |
| 20260507000904 | 55 | 143 | 5.0 | 12.0 | 0.00 | 0.00 | 0.00 | 85 | 1011.9 |
| 20260507000406 | 55 | 155 | 4.0 | 10.0 | 0.00 | 0.00 | 0.00 | 84 | 1011.9 |
| 20260506234905 | 55 | 185 | 1.0 | 8.0 | 0.00 | 0.00 | 0.00 | 84 | 1011.8 |
| 20260506233405 | 55 | 157 | 5.0 | 12.0 | 0.00 | 0.00 | 0.00 | 84 | 1011.8 |
| 20260506232905 | 55 | 122 | 0.0 | 8.0 | 0.00 | 0.00 | 0.00 | 83 | 1011.7 |
| 20260506232404 | 55 | 96 | 1.0 | 7.0 | 0.00 | 0.00 | 0.00 | 83 | 1011.7 |
| 20260506231905 | 55 | 103 | 1.0 | 6.0 | 0.00 | 0.00 | 0.00 | 83 | 1011.7 |
| 20260506230905 | 55 | 104 | 5.0 | 12.0 | 0.00 | 0.00 | 0.00 | 82 | 1011.7 |
| 20260506230404 | 55 | 126 | 4.0 | 9.0 | 0.00 | 0.00 | 0.00 | 82 | 1011.7 |
| 20260506225905 | 55 | 136 | 0.0 | 7.0 | 0.00 | 0.00 | 0.00 | 82 | 1011.8 |
| 20260506225405 | 55 | 108 | 4.0 | 12.0 | 0.00 | 0.00 | 0.00 | 82 | 1011.8 |
| 20260506224404 | 56 | 110 | 3.0 | 9.0 | 0.00 | 0.00 | 0.00 | 81 | 1011.9 |
| 20260506223904 | 56 | 87 | 2.0 | 6.0 | 0.00 | 0.00 | 0.00 | 81 | 1011.9 |
| 20260506223407 | 56 | 111 | 5.0 | 12.0 | 0.00 | 0.00 | 0.00 | 81 | 1012.0 |
| 20260506222405 | 56 | 94 | 3.0 | 12.0 | 0.00 | 0.00 | 0.00 | 80 | 1012.0 |
| 20260506221904 | 56 | 167 | 3.0 | 9.0 | 0.00 | 0.00 | 0.00 | 80 | 1012.0 |
| 20260506221404 | 56 | 114 | 3.0 | 9.0 | 0.00 | 0.00 | 0.00 | 79 | 1012.1 |
| 20260506220904 | 57 | 132 | 3.0 | 9.0 | 0.00 | 0.00 | 0.00 | 79 | 1012.1 |
| 20260506220405 | 57 | 104 | 4.0 | 13.0 | 0.00 | 0.00 | 0.00 | 79 | 1012.2 |
| 20260506215905 | 57 | 132 | 5.0 | 12.0 | 0.00 | 0.00 | 0.00 | 78 | 1012.2 |
| 20260506214905 | 57 | 95 | 2.0 | 7.0 | 0.00 | 0.00 | 0.00 | 77 | 1012.1 |
| 20260506214404 | 57 | 113 | 2.0 | 9.0 | 0.00 | 0.00 | 0.00 | 77 | 1012.1 |
| 20260506213904 | 57 | 85 | 3.0 | 12.0 | 0.00 | 0.00 | 0.00 | 77 | 1012.0 |
| 20260506212404 | 58 | 54 | 2.0 | 8.0 | 0.00 | 0.00 | 0.00 | 75 | 1012.0 |
| 20260506211904 | 58 | 129 | 5.0 | 10.0 | 0.00 | 0.00 | 0.00 | 75 | 1012.0 |
| 20260506211404 | 58 | 94 | 3.0 | 12.0 | 0.00 | 0.00 | 0.00 | 74 | 1012.0 |
| 20260506210904 | 58 | 69 | 5.0 | 12.0 | 0.00 | 0.00 | 0.00 | 74 | 1012.0 |
| 20260506210405 | 58 | 68 | 5.0 | 9.0 | 0.00 | 0.00 | 0.00 | 73 | 1011.9 |
| 20260506205904 | 58 | 77 | 4.0 | 7.0 | 0.00 | 0.00 | 0.00 | 73 | 1011.9 |
| 20260506205404 | 58 | 56 | 4.0 | 10.0 | 0.00 | 0.00 | 0.00 | 72 | 1011.8 |
| 20260506203904 | 59 | 46 | 2.0 | 7.0 | 0.00 | 0.00 | 0.00 | 71 | 1011.7 |
| 20260506203404 | 59 | 65 | 5.0 | 13.0 | 0.00 | 0.00 | 0.00 | 70 | 1011.6 |
| 20260506202405 | 60 | 71 | 4.0 | 9.0 | 0.00 | 0.00 | 0.00 | 69 | 1011.6 |
| 20260506201904 | 60 | 75 | 3.0 | 9.0 | 0.00 | 0.00 | 0.00 | 68 | 1011.6 |
| 20260506201404 | 60 | 96 | 4.0 | 9.0 | 0.00 | 0.00 | 0.00 | 67 | 1011.5 |
| 20260506200904 | 60 | 48 | 3.0 | 9.0 | 0.00 | 0.00 | 0.00 | 67 | 1011.5 |
| 20260506195904 | 61 | 39 | 5.0 | 9.0 | 0.00 | 0.00 | 0.00 | 65 | 1011.3 |
| 20260506194904 | 61 | 44 | 5.0 | 10.0 | 0.00 | 0.00 | 0.00 | 64 | 1011.4 |
| 20260506194404 | 61 | 42 | 2.0 | 8.0 | 0.00 | 0.00 | 0.00 | 63 | 1011.4 |
| 20260506193904 | 62 | 44 | 1.0 | 9.0 | 0.00 | 0.00 | 0.00 | 62 | 1011.4 |
| 20260506193404 | 62 | 27 | 2.0 | 8.0 | 0.00 | 0.00 | 0.00 | 61 | 1011.5 |
| 20260506192904 | 62 | 75 | 4.0 | 14.0 | 0.00 | 0.00 | 0.00 | 61 | 1011.3 |
| 20260506192405 | 62 | 77 | 1.0 | 8.0 | 0.00 | 0.00 | 0.00 | 60 | 1011.3 |
| 20260506191405 | 63 | 118 | 2.0 | 9.0 | 0.00 | 0.00 | 0.00 | 60 | 1011.2 |
| 20260506190905 | 63 | 72 | 2.0 | 5.0 | 0.00 | 0.00 | 0.00 | 59 | 1011.1 |
| 20260506185906 | 64 | 75 | 3.0 | 10.0 | 0.00 | 0.00 | 0.00 | 58 | 1010.9 |
| 20260506184905 | 64 | 23 | 1.0 | 12.0 | 0.00 | 0.00 | 0.00 | 57 | 1010.8 |
| 20260506184405 | 65 | 67 | 1.0 | 9.0 | 0.00 | 0.00 | 0.00 | 56 | 1010.8 |
| 20260506183905 | 65 | 55 | 3.0 | 13.0 | 0.00 | 0.00 | 0.00 | 56 | 1010.8 |
| 20260506183405 | 65 | 21 | 2.0 | 12.0 | 0.00 | 0.00 | 0.00 | 55 | 1010.8 |
| 20260506182906 | 65 | 36 | 3.0 | 10.0 | 0.00 | 0.00 | 0.00 | 54 | 1010.8 |
| 20260506182406 | 66 | 158 | 3.0 | 10.0 | 0.00 | 0.00 | 0.00 | 54 | 1010.8 |
| 20260506181906 | 66 | 51 | 0.0 | 3.0 | 0.00 | 0.00 | 0.00 | 53 | 1010.8 |
| 20260506181405 | 66 | 37 | 1.0 | 5.0 | 0.00 | 0.00 | 0.00 | 53 | 1010.9 |
| 20260506180905 | 67 | 45 | 1.0 | 8.0 | 0.00 | 0.00 | 0.00 | 53 | 1010.8 |
| 20260506180405 | 67 | 98 | 3.0 | 16.0 | 0.00 | 0.00 | 0.00 | 52 | 1011.0 |
| 20260506175905 | 67 | 51 | 1.0 | 12.0 | 0.00 | 0.00 | 0.00 | 51 | 1010.8 |
| 20260506175405 | 67 | 86 | 5.0 | 14.0 | 0.00 | 0.00 | 0.00 | 51 | 1010.9 |
| 20260506174905 | 68 | 156 | 3.0 | 18.0 | 0.00 | 0.00 | 0.00 | 51 | 1010.9 |
| 20260506174406 | 68 | 88 | 3.0 | 13.0 | 0.00 | 0.00 | 0.00 | 50 | 1010.9 |
| 20260506173906 | 68 | 84 | 5.0 | 14.0 | 0.00 | 0.00 | 0.00 | 49 | 1011.0 |
| 20260506173405 | 68 | 111 | 5.0 | 12.0 | 0.00 | 0.00 | 0.00 | 49 | 1011.0 |
| 20260506172905 | 69 | 105 | 3.0 | 10.0 | 0.00 | 0.00 | 0.00 | 48 | 1011.0 |
| 20260506172405 | 69 | 99 | 6.0 | 9.0 | 0.00 | 0.00 | 0.00 | 48 | 1011.2 |
| 20260506171905 | 69 | 80 | 4.0 | 14.0 | 0.00 | 0.00 | 0.00 | 47 | 1011.1 |
| 20260506171405 | 69 | 99 | 1.0 | 10.0 | 0.00 | 0.00 | 0.00 | 47 | 1011.1 |
| 20260506170905 | 69 | 64 | 3.0 | 14.0 | 0.00 | 0.00 | 0.00 | 46 | 1011.2 |
| 20260506170405 | 70 | 77 | 1.0 | 8.0 | 0.00 | 0.00 | 0.00 | 46 | 1011.2 |
| 20260506165906 | 70 | 47 | 1.0 | 10.0 | 0.00 | 0.00 | 0.00 | 47 | 1011.2 |
| 20260506165405 | 70 | 354 | 1.0 | 7.0 | 0.00 | 0.00 | 0.00 | 47 | 1011.1 |
| 20260506164905 | 69 | 108 | 1.0 | 10.0 | 0.00 | 0.00 | 0.00 | 46 | 1011.2 |
| 20260506164405 | 68 | 102 | 3.0 | 10.0 | 0.00 | 0.00 | 0.00 | 48 | 1011.3 |
| 20260506163905 | 68 | 15 | 2.0 | 8.0 | 0.00 | 0.00 | 0.00 | 49 | 1011.2 |
| 20260506163405 | 69 | 41 | 3.0 | 10.0 | 0.00 | 0.00 | 0.00 | 49 | 1011.1 |
| 20260506162905 | 69 | 3 | 2.0 | 8.0 | 0.00 | 0.00 | 0.00 | 49 | 1011.2 |
| 20260506161905 | 68 | 77 | 4.0 | 9.0 | 0.00 | 0.00 | 0.00 | 48 | 1011.2 |
| 20260506160905 | 69 | 43 | 2.0 | 7.0 | 0.00 | 0.00 | 0.00 | 46 | 1011.3 |
| 20260506160405 | 69 | 334 | 2.0 | 5.0 | 0.00 | 0.00 | 0.00 | 45 | 1011.4 |
| 20260506155905 | 69 | 95 | 2.0 | 7.0 | 0.00 | 0.00 | 0.00 | 46 | 1011.4 |
| 20260506155405 | 69 | 76 | 2.0 | 8.0 | 0.00 | 0.00 | 0.00 | 46 | 1011.2 |
| 20260506154905 | 70 | 82 | 4.0 | 8.0 | 0.00 | 0.00 | 0.00 | 45 | 1011.2 |
| 20260506154407 | 70 | 99 | 3.0 | 7.0 | 0.00 | 0.00 | 0.00 | 42 | 1011.2 |
| 20260506153905 | 71 | 46 | 1.0 | 8.0 | 0.00 | 0.00 | 0.00 | 41 | 1011.3 |
| 20260506153405 | 70 | 74 | 0.0 | 9.0 | 0.00 | 0.00 | 0.00 | 41 | 1011.3 |
| 20260506152905 | 70 | 175 | 2.0 | 9.0 | 0.00 | 0.00 | 0.00 | 42 | 1011.5 |
| 20260506152405 | 70 | 32 | 0.0 | 6.0 | 0.00 | 0.00 | 0.00 | 41 | 1011.5 |
| 20260506151905 | 70 | 89 | 3.0 | 7.0 | 0.00 | 0.00 | 0.00 | 42 | 1011.6 |
| 20260506150905 | 70 | 154 | 2.0 | 7.0 | 0.00 | 0.00 | 0.00 | 41 | 1011.8 |
| 20260506150405 | 71 | 43 | 0.0 | 9.0 | 0.00 | 0.00 | 0.00 | 41 | 1011.7 |
| 20260506145405 | 71 | 167 | 3.0 | 7.0 | 0.00 | 0.00 | 0.00 | 39 | 1012.0 |
| 20260506144905 | 72 | 259 | 2.0 | 9.0 | 0.00 | 0.00 | 0.00 | 39 | 1012.1 |
| 20260506144405 | 72 | 213 | 1.0 | 10.0 | 0.00 | 0.00 | 0.00 | 39 | 1012.1 |
| 20260506143905 | 72 | 128 | 0.0 | 6.0 | 0.00 | 0.00 | 0.00 | 39 | 1012.2 |
| 20260506143405 | 72 | 79 | 1.0 | 9.0 | 0.00 | 0.00 | 0.00 | 38 | 1012.2 |
| 20260506142905 | 72 | 161 | 1.0 | 5.0 | 0.00 | 0.00 | 0.00 | 39 | 1012.3 |
| 20260506142405 | 70 | 55 | 0.0 | 6.0 | 0.00 | 0.00 | 0.00 | 40 | 1012.3 |
| 20260506141405 | 71 | 209 | 1.0 | 7.0 | 0.00 | 0.00 | 0.00 | 39 | 1012.5 |
| 20260506140905 | 72 | 126 | 2.0 | 9.0 | 0.00 | 0.00 | 0.00 | 39 | 1012.4 |
| 20260506140405 | 73 | 96 | 2.0 | 6.0 | 0.00 | 0.00 | 0.00 | 37 | 1012.6 |
| 20260506135405 | 73 | 213 | 1.0 | 7.0 | 0.00 | 0.00 | 0.00 | 38 | 1012.6 |
| 20260506134905 | 72 | 126 | 2.0 | 8.0 | 0.00 | 0.00 | 0.00 | 38 | 1012.7 |
| 20260506134405 | 71 | 71 | 0.0 | 2.0 | 0.00 | 0.00 | 0.00 | 39 | 1012.7 |
| 20260506133905 | 71 | 132 | 0.0 | 1.0 | 0.00 | 0.00 | 0.00 | 40 | 1012.9 |
| 20260506132405 | 72 | 241 | 1.0 | 8.0 | 0.00 | 0.00 | 0.00 | 40 | 1013.1 |
| 20260506131905 | 71 | 67 | 0.0 | 3.0 | 0.00 | 0.00 | 0.00 | 41 | 1013.1 |
| 20260506131405 | 70 | 151 | 0.0 | 7.0 | 0.00 | 0.00 | 0.00 | 41 | 1013.1 |
| 20260506130405 | 72 | 183 | 2.0 | 7.0 | 0.00 | 0.00 | 0.00 | 40 | 1013.2 |
| 20260506125905 | 71 | 146 | 1.0 | 6.0 | 0.00 | 0.00 | 0.00 | 40 | 1013.3 |
| 20260506125405 | 72 | 147 | 0.0 | 8.0 | 0.00 | 0.00 | 0.00 | 41 | 1013.2 |
| 20260506124904 | 71 | 27 | 1.0 | 9.0 | 0.00 | 0.00 | 0.00 | 41 | 1013.3 |
| 20260506124405 | 69 | 91 | 0.0 | 0.0 | 0.00 | 0.00 | 0.00 | 42 | 1013.4 |
| 20260506123905 | 69 | 133 | 1.0 | 5.0 | 0.00 | 0.00 | 0.00 | 41 | 1013.4 |
| 20260506122905 | 69 | 125 | 2.0 | 6.0 | 0.00 | 0.00 | 0.00 | 43 | 1013.6 |
| 20260506122405 | 69 | 345 | 3.0 | 7.0 | 0.00 | 0.00 | 0.00 | 41 | 1013.6 |
| 20260506121904 | 70 | 265 | 2.0 | 8.0 | 0.00 | 0.00 | 0.00 | 41 | 1013.6 |
| 20260506121405 | 69 | 103 | 1.0 | 3.0 | 0.00 | 0.00 | 0.00 | 41 | 1013.7 |
| 20260506120904 | 69 | 105 | 1.0 | 6.0 | 0.00 | 0.00 | 0.00 | 42 | 1013.9 |
| 20260506120405 | 70 | 221 | 6.0 | 10.0 | 0.00 | 0.00 | 0.00 | 41 | 1014.0 |
| 20260506115905 | 70 | 89 | 1.0 | 7.0 | 0.00 | 0.00 | 0.00 | 43 | 1014.0 |
| 20260506115405 | 70 | 83 | 1.0 | 10.0 | 0.00 | 0.00 | 0.00 | 44 | 1014.1 |
| 20260506114905 | 68 | 231 | 4.0 | 7.0 | 0.00 | 0.00 | 0.00 | 45 | 1014.2 |
| 20260506114405 | 68 | 209 | 1.0 | 10.0 | 0.00 | 0.00 | 0.00 | 42 | 1014.3 |
| 20260506113905 | 67 | 313 | 1.0 | 6.0 | 0.00 | 0.00 | 0.00 | 44 | 1014.2 |
| 20260506113405 | 69 | 216 | 6.0 | 8.0 | 0.00 | 0.00 | 0.00 | 42 | 1014.3 |
| 20260506112905 | 69 | 184 | 2.0 | 7.0 | 0.00 | 0.00 | 0.00 | 41 | 1014.3 |
| 20260506111405 | 67 | 278 | 2.0 | 6.0 | 0.00 | 0.00 | 0.00 | 45 | 1014.5 |
| 20260506110905 | 67 | 187 | 0.0 | 7.0 | 0.00 | 0.00 | 0.00 | 45 | 1014.6 |
| 20260506110405 | 67 | 170 | 1.0 | 7.0 | 0.00 | 0.00 | 0.00 | 45 | 1014.6 |
| 20260506105905 | 67 | 249 | 0.0 | 8.0 | 0.00 | 0.00 | 0.00 | 47 | 1014.6 |
| 20260506105405 | 68 | 251 | 1.0 | 5.0 | 0.00 | 0.00 | 0.00 | 45 | 1014.6 |
| 20260506104905 | 68 | 167 | 5.0 | 10.0 | 0.00 | 0.00 | 0.00 | 44 | 1014.6 |
| 20260506104405 | 68 | 348 | 0.0 | 9.0 | 0.00 | 0.00 | 0.00 | 44 | 1014.6 |
| 20260506103905 | 68 | 149 | 1.0 | 9.0 | 0.00 | 0.00 | 0.00 | 45 | 1014.7 |
| 20260506103405 | 69 | 128 | 0.0 | 5.0 | 0.00 | 0.00 | 0.00 | 44 | 1014.7 |
| 20260506102905 | 69 | 120 | 1.0 | 6.0 | 0.00 | 0.00 | 0.00 | 45 | 1014.8 |
| 20260506102405 | 67 | 68 | 0.0 | 7.0 | 0.00 | 0.00 | 0.00 | 48 | 1014.8 |
| 20260506101905 | 67 | 113 | 2.0 | 7.0 | 0.00 | 0.00 | 0.00 | 49 | 1014.8 |
| 20260506100905 | 66 | 298 | 1.0 | 5.0 | 0.00 | 0.00 | 0.00 | 51 | 1014.8 |
| 20260506100405 | 67 | 297 | 0.0 | 1.0 | 0.00 | 0.00 | 0.00 | 51 | 1014.8 |
| 20260506095905 | 66 | 86 | 1.0 | 6.0 | 0.00 | 0.00 | 0.00 | 52 | 1014.8 |
| 20260506095405 | 67 | 150 | 1.0 | 8.0 | 0.00 | 0.00 | 0.00 | 52 | 1014.9 |
| 20260506094905 | 67 | 119 | 1.0 | 8.0 | 0.00 | 0.00 | 0.00 | 53 | 1014.9 |
| 20260506094405 | 66 | 83 | 3.0 | 7.0 | 0.00 | 0.00 | 0.00 | 54 | 1014.8 |
| 20260506093904 | 65 | 203 | 1.0 | 5.0 | 0.00 | 0.00 | 0.00 | 55 | 1014.8 |
| 20260506093405 | 66 | 152 | 1.0 | 8.0 | 0.00 | 0.00 | 0.00 | 56 | 1014.8 |
| 20260506092905 | 65 | 161 | 0.0 | 5.0 | 0.00 | 0.00 | 0.00 | 58 | 1014.9 |
| 20260506092405 | 65 | 170 | 3.0 | 8.0 | 0.00 | 0.00 | 0.00 | 57 | 1015.0 |
| 20260506091905 | 64 | 221 | 1.0 | 6.0 | 0.00 | 0.00 | 0.00 | 57 | 1014.9 |
| 20260506091405 | 64 | 126 | 1.0 | 6.0 | 0.00 | 0.00 | 0.00 | 60 | 1015.0 |
| 20260506090905 | 64 | 145 | 1.0 | 9.0 | 0.00 | 0.00 | 0.00 | 61 | 1015.0 |